Weather History for Fremont, NE

Change the Weather History Date:

Sunday, November 3, 2013

  Actual Average Record
Temperature  
Mean Temperature 50 °F -  
Max Temperature 58 °F 52 °F 80 °F (1978)
Min Temperature 41 °F 34 °F 8 °F (1991)
Degree Days  
Heating Degree Days 16    
Moisture  
Dew Point 35 °F    
Average Humidity 57    
Maximum Humidity 73    
Minimum Humidity 43    
Precipitation  
Precipitation 0.00 in - - ()
Sea Level Pressure  
Sea Level Pressure 29.86 in    
Wind  
Wind Speed 16 mph (SSE)    
Max Wind Speed 31 mph    
Max Gust Speed 44 mph    
Visibility 10 miles    
Events      
Averages and records for this station are not official NWS values.
T = Trace of Precipitation, MM = Missing Value Source: NWS Daily Summary

Daily Weather History Graph

Daily Weather History Graph

Search for Another Location

Airport:

Trip Planner

Search our weather history database for the weather conditions in past years. The results will help you decide how hot, cold, wet, or windy it might be!

Date:

Astronomy

Nov. 03, 2013 Rise Set
Actual Time 7:00 AM CST 5:18 PM CST
Civil Twilight 6:31 AM CST 5:47 PM CST
Nautical Twilight 5:58 AM CST 6:19 PM CST
Astronomical Twilight 5:26 AM CST 6:52 PM CST
Moon 7:05 AM CST (11/3) 5:33 PM CST (11/3)
Length of Visible Light 11h 15m
Length of Day
10h 17m
New Moon, 0% of the Moon is Illuminated
Nov 3
New Moon
Nov 9
First Quarter
Nov 17
Full
Nov 25
Last Quarter
Dec 2
New

Hourly Weather History & Observations

Time (CST) Temp. Windchill Dew Point Humidity Pressure Visibility Wind Dir Wind Speed Gust Speed Precip Events Conditions
12:15 AM 44.6 °F 40.7 °F 33.4 °F 65% 30.05 in 10.0 mi SE 6.9 mph - N/A   Clear
12:35 AM 43.3 °F 38.6 °F 33.4 °F 68% 30.05 in 10.0 mi SE 8.1 mph - N/A   Clear
12:55 AM 44.4 °F 39.5 °F 33.6 °F 66% 30.05 in 10.0 mi SSE 9.2 mph - N/A   Clear
1:15 AM 44.6 °F 39.7 °F 33.4 °F 65% 30.05 in 10.0 mi SSE 9.2 mph - N/A   Clear
1:35 AM 43.9 °F 38.3 °F 33.4 °F 67% 30.05 in 10.0 mi SSE 10.4 mph - N/A   Clear
1:55 AM 43.7 °F 38.1 °F 33.4 °F 67% 30.04 in 10.0 mi SSE 10.4 mph - N/A   Clear
1:15 AM 43.7 °F 37.7 °F 33.4 °F 67% 30.03 in 10.0 mi SSE 11.5 mph - N/A   Clear
1:35 AM 43.7 °F 37.7 °F 33.8 °F 68% 30.03 in 10.0 mi SSE 11.5 mph - N/A   Clear
1:55 AM 43.2 °F 37.4 °F 33.6 °F 69% 30.02 in 10.0 mi SSE 10.4 mph - N/A   Clear
2:15 AM 43.0 °F 36.8 °F 33.8 °F 70% 30.02 in 10.0 mi SSE 11.5 mph - N/A   Clear
2:35 AM 42.8 °F 36.2 °F 33.8 °F 70% 30.02 in 10.0 mi SSE 12.7 mph - N/A   Clear
2:55 AM 43.0 °F 36.0 °F 33.6 °F 70% 30.01 in 10.0 mi SSE 13.8 mph 18.4 mph N/A   Clear
3:15 AM 43.3 °F 36.5 °F 33.4 °F 68% 30.01 in 10.0 mi SSE 13.8 mph 20.7 mph N/A   Clear
3:35 AM 42.8 °F 36.2 °F 33.4 °F 70% 30.00 in 10.0 mi SSE 12.7 mph 18.4 mph N/A   Clear
3:55 AM 41.9 °F 34.3 °F 33.4 °F 72% 30.00 in 10.0 mi SE 15.0 mph 19.6 mph N/A   Clear
4:15 AM 41.5 °F 33.8 °F 33.4 °F 73% 29.99 in 10.0 mi SSE 15.0 mph 20.7 mph N/A   Clear
4:35 AM 41.4 °F 33.6 °F 33.3 °F 73% 29.99 in 10.0 mi SSE 15.0 mph - N/A   Clear
4:55 AM 41.9 °F 34.3 °F 33.1 °F 71% 29.98 in 10.0 mi SSE 15.0 mph - N/A   Clear
5:15 AM 42.8 °F 35.4 °F 33.1 °F 69% 29.97 in 10.0 mi SE 15.0 mph 20.7 mph N/A   Clear
5:35 AM 43.2 °F 35.6 °F 32.9 °F 67% 29.96 in 10.0 mi SE 16.1 mph 23.0 mph N/A   Clear
5:55 AM 43.2 °F 35.6 °F 32.7 °F 67% 29.96 in 10.0 mi SSE 16.1 mph 25.3 mph N/A   Clear
6:15 AM 43.9 °F 36.5 °F 32.5 °F 64% 29.95 in 10.0 mi SSE 16.1 mph 25.3 mph N/A   Clear
6:35 AM 43.7 °F 36.3 °F 32.5 °F 65% 29.94 in 10.0 mi SSE 16.1 mph 26.5 mph N/A   Clear
6:55 AM 43.3 °F 36.5 °F 32.5 °F 66% 29.94 in 10.0 mi SE 13.8 mph 20.7 mph N/A   Clear
7:15 AM 44.1 °F 35.7 °F 32.0 °F 63% 29.93 in 10.0 mi SE 20.7 mph 26.5 mph N/A   Clear
7:35 AM 45.1 °F 37.3 °F 32.0 °F 60% 29.92 in 10.0 mi SE 19.6 mph 25.3 mph N/A   Clear
7:55 AM 46.6 °F - 31.6 °F 56% 29.92 in 10.0 mi SE 23.0 mph 28.8 mph N/A   Clear
8:15 AM 47.3 °F - 31.8 °F 55% 29.91 in 10.0 mi SSE 28.8 mph 35.7 mph N/A   Clear
8:35 AM 48.2 °F - 32.0 °F 54% 29.91 in 10.0 mi SSE 26.5 mph 38.0 mph N/A   Clear
8:55 AM 48.7 °F - 32.5 °F 54% 29.90 in 10.0 mi SE 26.5 mph 33.4 mph N/A   Clear
9:15 AM 49.1 °F - 33.4 °F 55% 29.89 in 10.0 mi SE 23.0 mph 33.4 mph N/A   Clear
9:35 AM 49.6 °F - 34.3 °F 56% 29.87 in 10.0 mi SE 27.6 mph 36.8 mph N/A   Clear
9:55 AM 50.4 °F - 34.3 °F 54% 29.86 in 10.0 mi SSE 18.4 mph 38.0 mph N/A   Clear
10:15 AM 51.3 °F - 34.7 °F 53% 29.86 in 10.0 mi SSE 25.3 mph 32.2 mph N/A   Clear
10:35 AM 53.1 °F - 34.3 °F 49% 29.85 in 10.0 mi SSE 26.5 mph 34.5 mph N/A   Clear
10:55 AM 54.0 °F - 34.7 °F 48% 29.84 in 10.0 mi SSE 31.1 mph 38.0 mph N/A   Clear
11:15 AM 55.0 °F - 35.1 °F 47% 29.84 in 10.0 mi SSE 25.3 mph 34.5 mph N/A   Clear
11:35 AM 56.3 °F - 35.1 °F 45% 29.82 in 10.0 mi SSE 29.9 mph 35.7 mph N/A   Clear
11:55 AM 56.5 °F - 35.1 °F 45% 29.81 in 10.0 mi SSE 28.8 mph 35.7 mph N/A   Clear
12:15 PM 57.2 °F - 34.9 °F 43% 29.80 in 10.0 mi SSE 26.5 mph 38.0 mph N/A   Clear
12:35 PM 57.0 °F - 35.4 °F 44% 29.78 in 10.0 mi SSE 23.0 mph 43.7 mph N/A   Clear
12:55 PM 56.7 °F - 36.0 °F 46% 29.77 in 10.0 mi SSE 20.7 mph 38.0 mph N/A   Clear
1:15 PM 57.6 °F - 35.8 °F 44% 29.76 in 10.0 mi SSE 27.6 mph 40.3 mph N/A   Clear
1:35 PM 57.9 °F - 36.7 °F 45% 29.76 in 10.0 mi SSE 20.7 mph 29.9 mph N/A   Clear
1:55 PM 57.6 °F - 36.7 °F 46% 29.76 in 10.0 mi SSE 20.7 mph 31.1 mph N/A   Clear
2:15 PM 57.6 °F - 36.9 °F 46% 29.76 in 10.0 mi SSE 18.4 mph 28.8 mph N/A   Clear
2:35 PM 57.6 °F - 37.2 °F 47% 29.75 in 10.0 mi SSE 20.7 mph 33.4 mph N/A   Clear
2:55 PM 58.3 °F - 36.1 °F 44% 29.74 in 10.0 mi SSE 26.5 mph 35.7 mph N/A   Clear
3:15 PM 58.1 °F - 36.0 °F 44% 29.73 in 10.0 mi SSE 21.9 mph 36.8 mph N/A   Clear
3:35 PM 57.7 °F - 36.5 °F 45% 29.72 in 10.0 mi SE 21.9 mph 31.1 mph N/A   Clear
3:55 PM 57.6 °F - 36.5 °F 45% 29.71 in 10.0 mi SSE 25.3 mph 35.7 mph N/A   Clear
4:15 PM 57.4 °F - 36.7 °F 46% 29.73 in 10.0 mi SSE 20.7 mph 35.7 mph N/A   Clear
4:35 PM 57.0 °F - 37.2 °F 48% 29.73 in 10.0 mi SSE 19.6 mph 25.3 mph N/A   Clear
4:55 PM 56.7 °F - 37.0 °F 48% 29.73 in 10.0 mi SSE 19.6 mph 33.4 mph N/A   Clear
5:15 PM 56.1 °F - 37.4 °F 49% 29.72 in 10.0 mi SSE 19.6 mph 27.6 mph N/A   Clear
5:35 PM 55.4 °F - 37.4 °F 51% 29.72 in 10.0 mi SE 19.6 mph 26.5 mph N/A   Clear
5:55 PM 54.9 °F - 37.6 °F 52% 29.73 in 10.0 mi SE 20.7 mph 28.8 mph N/A   Clear
6:15 PM 54.5 °F - 37.9 °F 54% 29.73 in 10.0 mi SSE 17.3 mph 28.8 mph N/A   Clear
6:35 PM 54.5 °F - 38.3 °F 54% 29.74 in 10.0 mi SE 17.3 mph 27.6 mph N/A   Clear
6:55 PM 54.5 °F - 38.3 °F 54% 29.74 in 10.0 mi SE 19.6 mph 25.3 mph N/A   Clear
7:15 PM 54.1 °F - 39.0 °F 57% 29.74 in 10.0 mi SE 17.3 mph 24.2 mph N/A   Clear
7:35 PM 54.0 °F - 39.2 °F 57% 29.74 in 10.0 mi SE 17.3 mph 27.6 mph N/A   Clear
7:55 PM 54.5 °F - 39.4 °F 57% 29.74 in 10.0 mi SE 18.4 mph 28.8 mph N/A   Clear
8:15 PM 53.6 °F - 39.6 °F 59% 29.74 in 10.0 mi SE 17.3 mph 25.3 mph N/A   Clear
8:35 PM 53.8 °F - 39.6 °F 59% 29.74 in 10.0 mi SE 21.9 mph 29.9 mph N/A   Clear
8:55 PM 53.6 °F - 39.6 °F 59% 29.74 in 10.0 mi SE 18.4 mph 26.5 mph N/A   Clear
9:15 PM 53.6 °F - 39.4 °F 59% 29.75 in 10.0 mi SE 16.1 mph 25.3 mph N/A   Clear
9:35 PM 53.6 °F - 39.4 °F 59% 29.75 in 10.0 mi SE 16.1 mph 23.0 mph N/A   Clear
9:55 PM 53.2 °F - 39.2 °F 59% 29.76 in 10.0 mi SE 13.8 mph 21.9 mph N/A   Clear
10:15 PM 52.7 °F - 39.2 °F 60% 29.77 in 10.0 mi SE 17.3 mph 23.0 mph N/A   Clear
10:35 PM 52.7 °F - 39.2 °F 60% 29.77 in 10.0 mi SSE 15.0 mph 20.7 mph N/A   Clear
10:55 PM 52.7 °F - 38.8 °F 59% 29.76 in 10.0 mi SSE 19.6 mph 25.3 mph N/A   Clear